Location: Benalto
(52.3088°N, 114.2787°W)
Time: 11:20:38
(UTC+00:00)

N. Korean satellite - Pass Details

Date: 05 December 2021
Orbit: 447 x 490 km, 97.3° (Epoch: 27 January)

Event Time Altitude Azimuth Distance (km) Brightness Sun altitude
Rises 13:42:58 0° 6° (N) 2,474 10.0 -15.4°
Reaches altitude 10° 13:45:08 10° 357° (N) 1,592 9.0 -15.0°
Maximum altitude 13:48:12 33° 292° (WNW) 785 7.0 -14.6°
Drops below altitude 10° 13:51:16 10° 227° (SW) 1,575 8.9 -14.1°
Sets 13:53:24 0° 217° (SW) 2,442 9.9 -13.8°
